[Date Prev][Date Next][Thread Prev][Thread Next] - [Date Index][Thread Index][Author Index]
2 Line ISS Keps 3-6
- Subject: [sarex] 2 Line ISS Keps 3-6
- From: "Dave Larsen PhD" <doc@xxxxxxxxxxx>
- Date: Sat, 6 Mar 2004 01:48:50 -0800
ISS
1 25544U 98067A 04066.18099394 .00014575 00000-0 14170-3 0 3216
2 25544 51.6285 130.2933 0011125 243.2537 227.9876 15.66498363302159
----
Via the sarex mailing list at AMSAT.ORG courtesy of AMSAT-NA.
To unsubscribe, send "unsubscribe sarex" to Majordomo@amsat.org
AMSAT Home